Regional Weather Roundup
Issued by NWS Charleston, SC

Current Version | Previous Version | Text Only | Print | Product List | Glossary Off
Versions: 1 2 3 4 5 6 7 8 9 10 11 12 13 14 15 16 17 18 19 20 21 22 23 24 25 26 27 28 29 30 31 32 33 34 35 36 37 38 39 40 41 42 43 44 45 46 47 48 49 50

000
ASUS42 KCHS 181312
RWRCHS

Regional Weather Roundup
National Weather Service Charleston SC
800 AM EST SUN FEB 18 2018

NOTE: "fair" indicates few or no clouds below 12,000 feet with no
significant weather and/or obstructions to visibility.

Not all stations are quality controlled. Use data with caution,
especially dewpoint observations.

SCZ027-030-031-034>040-042>050-181400-
...Southeast South Carolina...

CITY           SKY/WX    TMP DP  RH WIND       PRES   REMARKS
N Charleston   FAIR      63  61  93 N7        30.21R
Waterfront Prk   N/A     63  61  93 VRB2      30.04R
Mount Pleasant FAIR      61  61 100 CALM      30.21R FOG
Johns Island   CLOUDY    66  63  88 CALM      30.20R
Pinopolis        N/A     57  57 100 VRB3      30.11R
Moncks Corner  CLOUDY    59  55  88 N3        30.21R
Summerville    CLOUDY    59  59 100 N6        30.22R
Beaufort MCAS  CLOUDY    64  62  93 SW6       30.20R
Beaufort Arpt  FAIR      63  61  94 W3        30.20R FOG
Hilton Head Is SUNNY     63  61  94 SW6       30.22R
Walterboro     FAIR      59  59 100 NW3       30.22R
Allendale      CLOUDY    63  61  94 CALM      30.21R

...Southern Midlands and Pee Dee...

CITY           SKY/WX    TMP DP  RH WIND       PRES   REMARKS
Georgetown     CLOUDY    61  59  94 NW5       30.22R
Kingstree      CLOUDY    57  55  94 CALM      30.23R FOG
Orangeburg     CLOUDY    57  51  80 N6        30.22R
Barnwell         N/A     59  55  88 N7        30.23R
Aiken          CLOUDY    52  52 100 N5        30.26R
Manning        CLOUDY    55  41  58 MISG      30.22R
Columbia       MOCLDY    55  52  89 N5        30.23R
Sumter         CLOUDY    53  51  92 N3        30.21R
Florence       PTSUNNY   52  50  93 N9        30.25R
Myrtle Beach   CLOUDY    59  58  96 N9        30.23R
N Myrtle Beach CLOUDY    57  56  96 N5        30.22R FOG

$$

GAZ063-065-086>088-099>101-113>116-118-119-134>141-150-181400-
...Southeast Georgia...

CITY           SKY/WX    TMP DP  RH WIND       PRES   REMARKS
Savannah Arpt  FAIR      62  61  96 SW3       30.21R
Hunter AAF     PTSUNNY   62  60  93 W6        30.18R
Fort Stewart   CLOUDY    64  62  94 SW5       30.19R
Statesboro     CLOUDY    62  32  33 CALM      30.21R
Sylvania       CLOUDY    62  62 100 CALM      30.22R
Claxton        CLOUDY    61  60  99 CALM      30.21R

...CSRA, Central and far Southeast Georgia...

CITY           SKY/WX    TMP DP  RH WIND       PRES   REMARKS
Thomson        CLOUDY    56  54  92 E8        30.27R
Augusta-Bush   CLOUDY    59  55  87 NE5       30.21R
Augusta-Daniel CLOUDY    58  54  86 N6        30.22R
Swainsboro     CLOUDY    61  61 100 CALM      30.22R
Vidalia        CLOUDY    63  63 100 CALM      30.21R
Eastman        CLOUDY    64  57  79 CALM      30.23R
Hazlehurst     CLOUDY    66  66  97 SW3       30.20R
Alma           CLOUDY    66  63  90 SW7       30.21R
Waycross       CLOUDY    66  63  90 NW5       30.22R
Jesup          NOT AVBL
Baxley         CLOUDY    63  63 100 SW3       30.21R
Brunswick      PTSUNNY   63  61  94 W3        30.23R
Saint Simons   FAIR      64  64 100 W5        30.22R

$$

SCZ027-028-034-036>038-045-046-048>050-GAZ119-141-181400-
...Lake and Supplemental Coastal Observations...

STATION/POSITION TIME  TEMP    WIND        PRES    WAVE   SWELL
                       AIR SEA DIR/SP/G            HT/PER HT/PER/DIR
                 (UTC) (F)     (DEG/KT/KT) (MB)    (FT/S) (FT/S/D)
Winyah Bay       1145   61     320/  4     1022.0
Lake Murray      1220   51     340/  1/  3 1022.4
ACE Basin NERRS  1145   63        CALM     1022.0
Fort Pulaski     1236   63 59  260/  3/  4 1023.0R
Sapelo Island    1200   63     260/  5     1022.0

$$

ANZ835-935-AMZ111-154-330-350-352-354-370-450-454-472-181400-
...C-MAN and Buoy Observations...

STATION/POSITION TIME  TEMP    WIND        PRES    WAVE   SWELL
                       AIR SEA DIR/SP/G            HT/PER HT/PER/DIR
                 (UTC) (F)     (DEG/KT/KT) (MB)    (FT/S) (FT/S/D)
Buoy 41004       1250   67 68  270/ 12/ 16 1022.2R   4/11   2/130/11
Buoy 41008       1250   58 57  310/  4/  4 1022.8R   2/10   2/110/10
Folly Beach CMAN 1200   61     210/  2/  3 1022.4R
Capers Nearshore 1208   53 56  230/  4/  8 1021.5R
Fripp Nearshore  1208   55 56  230/  4/  6 1020.8R


STATION/POSITION TIME  TEMP    WIND        PRES    WAVE   SWELL
                       AIR SEA DIR/SP/G            HT/PER HT/PER/DIR
                 (UTC) (F)     (DEG/KT/KT) (MB)    (FT/S) (FT/S/D)
5E St. Marys GA  1300      58                N/A     2/11   2/110/11
Frying Pan Buoy  1250   59 65   10/ 10/ 12 1023.1R   4/ 5   3/200/ 5
Buoy 41025       1250   55 69  340/ 17/ 23 1024.4R   4/10   2/120/10
Cape Lookout NC  1200          360/  9/ 10 1023.3R
Buoy 41002       1250   73 73  260/ 14/ 16 1022.6R   5/ 8   3/ 60/ 8
Buoy 41010       NOT AVBL
St Augustine FL  1200   62 58  310/  6/  8 1023.0R


$$




USA.gov is the U.S. government's official web portal to all federal, state and local government web resources and services.